Weather History for Eugene, OR

Change the Weather History Date:

Saturday, October 19, 2013

  Actual Average Record
Temperature  
Mean Temperature 52 °F 52 °F  
Max Temperature 68 °F 63 °F 86 °F (1940)
Min Temperature 35 °F 41 °F 25 °F (1949)
Degree Days  
Heating Degree Days 13 13  
Month to date heating degree days 265 201  
Since 1 July heating degree days 381 389  
Cooling Degree Days 0 0  
Month to date cooling degree days 0 0  
Year to date cooling degree days 411 238  
Growing Degree Days 2 (Base 50)    
Moisture  
Dew Point 41 °F    
Average Humidity 76    
Maximum Humidity 100    
Minimum Humidity 52    
Precipitation  
Precipitation 0.00 in 0.12 in 1.75 in (1947)
Month to date precipitation 0.50 1.49  
Year to date precipitation 17.50 28.79  
Snow  
Snow 0.00 in - - ()
Month to date snowfall 0.0  
Since 1 July snowfall 0.0  
Since 1 September snowfall 0.0  
Snow Depth 0.00 in    
Sea Level Pressure  
Sea Level Pressure 30.13 in    
Wind  
Wind Speed 2 mph (SW)    
Max Wind Speed 7 mph    
Max Gust Speed 9 mph    
Visibility 4 miles    
Events Fog    
T = Trace of Precipitation, MM = Missing Value Source: NWS Daily Summary

Daily Weather History Graph

Daily Weather History Graph

Search for Another Location

Airport:

Trip Planner

Search our weather history database for the weather conditions in past years. The results will help you decide how hot, cold, wet, or windy it might be!

Date:

Astronomy

Oct. 19, 2013 Rise Set
Actual Time 7:33 AM PDT 6:21 PM PDT
Civil Twilight 7:03 AM PDT 6:51 PM PDT
Nautical Twilight 6:30 AM PDT 7:24 PM PDT
Astronomical Twilight 5:56 AM PDT 7:57 PM PDT
Moon 6:50 PM PDT (10/19) 8:18 AM PDT (10/19)
Length of Visible Light 11h 47m
Length of Day
10h 48m
Full, 99% of the Moon is Illuminated
Oct 19
Full
Oct 26
Last Quarter
Nov 3
New
Nov 9
First Quarter
Nov 17
Full

Hourly Weather History & Observations

Time (PDT) Temp. Windchill Dew Point Humidity Pressure Visibility Wind Dir Wind Speed Gust Speed Precip Events Conditions
12:54 AM 41.0 °F 39.0 °F 39.0 °F 93% 30.12 in 1.2 mi SW 3.5 mph - N/A   Clear
1:09 AM 42.8 °F 40.1 °F 41.0 °F 93% 30.11 in 2.0 mi SSW 4.6 mph - N/A   Partly Cloudy
1:19 AM 42.8 °F 39.3 °F 42.8 °F 100% 30.11 in 7.0 mi SW 5.8 mph - N/A   Partly Cloudy
1:54 AM 41.0 °F 39.0 °F 39.9 °F 96% 30.12 in 6.0 mi SW 3.5 mph - N/A   Clear
2:54 AM 39.9 °F - 37.9 °F 93% 30.13 in 2.0 mi Calm Calm - N/A   Clear
2:57 AM 41.0 °F - 39.2 °F 93% 30.12 in 1.2 mi Calm Calm - N/A   Clear
3:01 AM 39.2 °F - 39.2 °F 100% 30.12 in 0.8 mi Calm Calm - N/A   Mist
3:21 AM 39.2 °F - 37.4 °F 93% 30.12 in 0.2 mi Calm Calm - N/A Fog Fog
3:28 AM 39.2 °F - 37.4 °F 93% 30.12 in 0.5 mi Calm Calm - N/A Fog Fog
3:31 AM 39.2 °F - 37.4 °F 93% 30.12 in 0.2 mi Calm Calm - N/A Fog Fog
3:42 AM 39.2 °F - 39.2 °F 100% 30.12 in 0.2 mi Calm Calm - N/A Fog Fog
3:49 AM 39.2 °F - 37.4 °F 93% 30.12 in 1.2 mi Calm Calm - N/A   Mostly Cloudy
3:54 AM 39.0 °F - 37.9 °F 96% 30.13 in 0.8 mi Calm Calm - N/A   Mist
4:25 AM 37.4 °F - 35.6 °F 93% 30.12 in 1.5 mi Calm Calm - N/A   Overcast
4:35 AM 37.4 °F - 35.6 °F 93% 30.12 in 0.8 mi Calm Calm - N/A   Mist
4:52 AM 37.4 °F 34.9 °F 37.4 °F 100% 30.13 in 0.8 mi South 3.5 mph - N/A   Overcast
4:54 AM 37.0 °F 34.5 °F 37.0 °F 100% 30.13 in 1.0 mi SSW 3.5 mph - N/A   Overcast
4:57 AM 37.4 °F 34.9 °F 35.6 °F 93% 30.13 in 2.0 mi SSW 3.5 mph - N/A   Overcast
5:04 AM 37.4 °F 33.8 °F 35.6 °F 93% 30.13 in 0.8 mi SSW 4.6 mph - N/A   Mist
5:10 AM 37.4 °F 32.8 °F 35.6 °F 93% 30.13 in 0.2 mi SSW 5.8 mph - N/A Fog Fog
5:27 AM 35.6 °F 32.8 °F 35.6 °F 100% 30.13 in 0.5 mi SSW 3.5 mph - N/A Fog Fog
5:36 AM 35.6 °F - 35.6 °F 100% 30.13 in 0.5 mi Calm Calm - N/A Fog Fog
5:54 AM 37.0 °F - 36.0 °F 96% 30.13 in 0.8 mi Calm Calm - N/A   Mist
6:54 AM 37.0 °F - 36.0 °F 96% 30.13 in 0.5 mi Calm Calm - N/A Fog Fog
6:57 AM 35.6 °F - 35.6 °F 100% 30.13 in 0.2 mi Calm Calm - N/A Fog Fog
7:06 AM 35.6 °F - 35.6 °F 100% 30.13 in 0.2 mi Calm Calm - N/A Fog Fog
7:54 AM 36.0 °F 33.3 °F 35.1 °F 97% 30.14 in 0.2 mi SSE 3.5 mph - N/A Fog Fog
8:04 AM 35.6 °F 32.8 °F 35.6 °F 100% 30.14 in 0.5 mi SE 3.5 mph - N/A Fog Fog
8:16 AM 37.4 °F 34.9 °F 35.6 °F 93% 30.14 in 0.2 mi South 3.5 mph - N/A Fog Fog
8:38 AM 37.4 °F - 37.4 °F 100% 30.14 in 0.1 mi Calm Calm - N/A Fog Fog
8:54 AM 39.0 °F - 37.9 °F 96% 30.16 in 0.1 mi Calm Calm - N/A Fog Fog
9:04 AM 39.2 °F - 39.2 °F 100% 30.15 in 0.2 mi Calm Calm - N/A Fog Fog
9:12 AM 39.2 °F - 39.2 °F 100% 30.15 in 0.5 mi Calm Calm - N/A Fog Fog
9:19 AM 41.0 °F - 41.0 °F 100% 30.15 in 0.2 mi Calm Calm - N/A Fog Fog
9:40 AM 42.8 °F - 42.8 °F 100% 30.16 in 0.5 mi Calm Calm - N/A Fog Mostly Cloudy
9:54 AM 44.6 °F - 44.6 °F 100% 30.16 in 0.8 mi Calm Calm - N/A Fog Scattered Clouds
10:02 AM 44.6 °F - 44.6 °F 100% 30.15 in 1.5 mi Calm Calm - N/A   Partly Cloudy
10:09 AM 44.6 °F - 44.6 °F 100% 30.15 in 4.0 mi Calm Calm - N/A   Partly Cloudy
10:54 AM 53.1 °F - 48.0 °F 83% 30.17 in 10.0 mi Calm Calm - N/A   Partly Cloudy
11:54 AM 55.0 °F - 48.9 °F 80% 30.16 in 10.0 mi NE 3.5 mph - N/A   Partly Cloudy
12:54 PM 60.1 °F - 48.9 °F 67% 30.15 in 10.0 mi North 3.5 mph - N/A   Clear
1:54 PM 63.0 °F - 50.0 °F 63% 30.13 in 10.0 mi NNW 3.5 mph - N/A   Clear
2:54 PM 64.9 °F - 48.9 °F 56% 30.12 in 10.0 mi NNW 3.5 mph - N/A   Clear
3:54 PM 66.9 °F - 48.9 °F 52% 30.11 in 10.0 mi North 4.6 mph - N/A   Clear
4:54 PM 66.9 °F - 51.1 °F 57% 30.10 in 10.0 mi North 3.5 mph - N/A   Clear
5:54 PM 63.0 °F - 53.1 °F 70% 30.10 in 10.0 mi NNE 3.5 mph - N/A   Clear
6:54 PM 55.0 °F - 50.0 °F 83% 30.11 in 10.0 mi Calm Calm - N/A   Clear
7:54 PM 51.1 °F - 46.9 °F 86% 30.12 in 10.0 mi Calm Calm - N/A   Clear
8:54 PM 48.9 °F - 46.0 °F 90% 30.13 in 10.0 mi Calm Calm - N/A   Clear
9:54 PM 46.9 °F - 45.0 °F 93% 30.14 in 10.0 mi Calm Calm - N/A   Clear
10:54 PM 46.0 °F 44.8 °F 44.1 °F 93% 30.14 in 8.0 mi SW 3.5 mph - N/A   Clear
11:48 PM 44.6 °F - 42.8 °F 93% 30.14 in 1.8 mi Calm Calm - N/A   Clear
11:54 PM 43.0 °F - 42.1 °F 97% 30.14 in 1.8 mi Calm Calm - N/A   Clear
11:58 PM 42.8 °F - 42.8 °F 100% 30.14 in 3.0 mi Calm Calm - N/A   Clear